User: anonymous   Login
Location: Walnut Point State Park
(39.6958°N, 88.0345°W)
Time: 09:40:25
(UTC-05:00)
Language:

ATLAS 3B R/B - Orbit

View from above orbital plane
View from above orbital plane
View from above satellite
View from above satellite

Ground track
Ground track

The orbit data is extracted from the following two-line orbital elements,

1 28538U 05004B   15234.92801028 0.00000000  00000-0  00000-0 0    03
2 28538  63.8258 171.4331 0194000 222.3158 137.6842 13.43067852    07
Epoch (UTC): 22 August 2015 22:16:20
Eccentricity: 0.0194000
inclination: 63.8258°
perigee height: 953 km
apogee height: 1243 km
right ascension of ascending node: 171.4331°
argument of perigee: 222.3158°
revolutions per day: 13.43067852
mean anomaly at epoch: 137.6842°
orbit number at epoch: 0

The dashed part of the orbit path shows where the satellite is in the earth's shadow,  

DLR